Time,TemperatureF,DewpointF,PressureIn,WindDirection,WindDirectionDegrees,WindSpeedMPH,WindSpeedGustMPH,Humidity,HourlyPrecipIn,Conditions,Clouds,dailyrainin,SoftwareType,DateUTC
2013-01-05 00:00:00,23.5,15.2,28.23,WSW,243,0.0,0.0,70,0.00,,,0.84,WUHU216DAVISWMX,2013-01-05 05:00:00,
2013-01-05 00:02:00,23.5,15.2,28.23,WSW,243,0.0,0.0,70,0.00,,,0.84,WUHU216DAVISWMX,2013-01-05 05:02:00,
2013-01-05 00:07:00,23.5,15.2,28.22,WSW,243,0.0,0.0,70,0.00,,,0.84,WUHU216DAVISWMX,2013-01-05 05:07:00,
2013-01-05 00:09:00,23.4,15.1,28.22,WSW,243,0.0,0.0,70,0.00,,,0.84,WUHU216DAVISWMX,2013-01-05 05:09:00,
2013-01-05 00:12:00,23.4,15.1,28.22,WSW,243,0.0,0.0,70,0.00,,,0.84,WUHU216DAVISWMX,2013-01-05 05:12:00,
2013-01-05 00:17:00,23.4,15.1,28.22,WSW,243,0.0,0.0,70,0.00,,,0.84,WUHU216DAVISWMX,2013-01-05 05:17:00,
2013-01-05 00:47:00,23.4,14.4,28.23,NW,322,5.0,5.0,68,0.00,,,0.84,WUHU216DAVISWMX,2013-01-05 05:47:00,
2013-01-05 00:52:00,23.5,14.5,28.23,WNW,293,0.0,10.0,68,0.00,,,0.84,WUHU216DAVISWMX,2013-01-05 05:52:00,
2013-01-05 00:57:00,23.4,14.4,28.23,WNW,293,0.0,10.0,68,0.00,,,0.84,WUHU216DAVISWMX,2013-01-05 05:57:00,
2013-01-05 01:02:00,23.5,14.5,28.23,WNW,293,0.0,0.0,68,0.00,,,0.84,WUHU216DAVISWMX,2013-01-05 06:02:00,
2013-01-05 01:07:00,23.5,14.5,28.23,WNW,293,0.0,0.0,68,0.00,,,0.84,WUHU216DAVISWMX,2013-01-05 06:07:00,
2013-01-05 01:12:00,23.5,14.5,28.23,WNW,293,0.0,0.0,68,0.00,,,0.84,WUHU216DAVISWMX,2013-01-05 06:12:00,
2013-01-05 01:16:00,23.4,14.4,28.23,WNW,293,0.0,0.0,68,0.00,,,0.84,WUHU216DAVISWMX,2013-01-05 06:16:00,
2013-01-05 01:17:00,23.4,14.4,28.23,WNW,293,0.0,0.0,68,0.00,,,0.84,WUHU216DAVISWMX,2013-01-05 06:17:00,
2013-01-05 01:22:00,23.4,14.4,28.23,WNW,293,0.0,0.0,68,0.00,,,0.84,WUHU216DAVISWMX,2013-01-05 06:22:00,
2013-01-05 02:02:00,-13.3,-20.8,28.25,WNW,299,18.0,18.0,68,0.00,,,0.84,WUHU216DAVISWMX,2013-01-05 07:02:00,
2013-01-05 02:07:00,23.3,14.4,28.25,WNW,298,7.0,19.0,68,0.00,,,0.84,WUHU216DAVISWMX,2013-01-05 07:07:00,
2013-01-05 02:12:00,23.5,14.5,28.25,West,280,13.0,21.0,68,0.00,,,0.84,WUHU216DAVISWMX,2013-01-05 07:12:00,
2013-01-05 02:17:00,23.5,14.5,28.25,WNW,290,11.0,25.0,68,0.00,,,0.84,WUHU216DAVISWMX,2013-01-05 07:17:00,
2013-01-05 02:22:00,23.5,14.9,28.26,WNW,292,9.0,25.0,69,0.00,,,0.84,WUHU216DAVISWMX,2013-01-05 07:22:00,
2013-01-05 02:27:00,23.5,14.9,28.26,West,280,0.0,19.0,69,0.00,,,0.84,WUHU216DAVISWMX,2013-01-05 07:27:00,
2013-01-05 02:32:00,23.5,14.9,28.25,West,280,0.0,19.0,69,0.00,,,0.84,WUHU216DAVISWMX,2013-01-05 07:32:00,
2013-01-05 02:37:00,23.5,14.9,28.26,West,280,0.0,0.0,69,0.00,,,0.84,WUHU216DAVISWMX,2013-01-05 07:37:00,
2013-01-05 02:42:00,23.5,14.9,28.26,West,280,0.0,0.0,69,0.00,,,0.84,WUHU216DAVISWMX,2013-01-05 07:42:00,
2013-01-05 02:47:00,23.5,14.9,28.26,West,280,0.0,0.0,69,0.00,,,0.84,WUHU216DAVISWMX,2013-01-05 07:47:00,
2013-01-05 02:49:00,23.5,14.9,28.26,WNW,295,0.0,0.0,69,0.00,,,0.84,WUHU216DAVISWMX,2013-01-05 07:49:00,
2013-01-05 02:51:00,23.5,14.9,28.26,West,280,0.0,0.0,69,0.00,,,0.84,WUHU216DAVISWMX,2013-01-05 07:51:00,
2013-01-05 02:57:00,23.5,14.9,28.26,WNW,295,0.0,0.0,69,0.00,,,0.84,WUHU216DAVISWMX,2013-01-05 07:57:00,
2013-01-05 03:25:00,22.9,14.6,28.27,West,277,9.0,9.0,70,0.00,,,0.84,WUHU216DAVISWMX,2013-01-05 08:25:00,
2013-01-05 03:31:00,22.8,14.5,28.27,West,272,10.0,19.0,70,0.00,,,0.84,WUHU216DAVISWMX,2013-01-05 08:31:00,
2013-01-05 03:36:00,22.6,14.3,28.27,WNW,296,14.0,24.0,70,0.00,,,0.84,WUHU216DAVISWMX,2013-01-05 08:36:00,
2013-01-05 03:40:00,22.6,14.0,28.27,WNW,286,9.0,24.0,69,0.00,,,0.84,WUHU216DAVISWMX,2013-01-05 08:40:00,
2013-01-05 03:45:00,22.6,14.3,28.27,West,280,5.0,20.0,70,0.00,,,0.84,WUHU216DAVISWMX,2013-01-05 08:45:00,
2013-01-05 03:50:00,22.5,14.6,28.27,West,278,9.0,18.0,71,0.00,,,0.84,WUHU216DAVISWMX,2013-01-05 08:50:00,
2013-01-05 03:55:00,22.5,14.2,28.27,West,269,11.0,18.0,70,0.00,,,0.84,WUHU216DAVISWMX,2013-01-05 08:55:00,
2013-01-05 04:01:00,22.5,14.2,28.28,WNW,296,6.0,18.0,70,0.00,,,0.84,WUHU216DAVISWMX,2013-01-05 09:01:00,
2013-01-05 04:05:00,22.5,14.2,28.28,WNW,288,6.0,20.0,70,0.00,,,0.84,WUHU216DAVISWMX,2013-01-05 09:05:00,
2013-01-05 04:11:00,22.5,14.2,28.28,West,278,10.0,20.0,70,0.00,,,0.84,WUHU216DAVISWMX,2013-01-05 09:11:00,
2013-01-05 04:16:00,22.6,14.7,28.28,West,278,13.0,17.0,71,0.00,,,0.84,WUHU216DAVISWMX,2013-01-05 09:16:00,
2013-01-05 04:21:00,22.5,14.6,28.29,West,266,6.0,16.0,71,0.00,,,0.84,WUHU216DAVISWMX,2013-01-05 09:21:00,
2013-01-05 04:25:00,22.6,14.7,28.29,West,267,6.0,18.0,71,0.00,,,0.84,WUHU216DAVISWMX,2013-01-05 09:25:00,
2013-01-05 04:30:00,22.6,14.7,28.28,West,273,7.0,18.0,71,0.00,,,0.84,WUHU216DAVISWMX,2013-01-05 09:30:00,
2013-01-05 04:35:00,22.6,14.7,28.29,West,280,11.0,16.0,71,0.00,,,0.84,WUHU216DAVISWMX,2013-01-05 09:35:00,
2013-01-05 04:40:00,22.6,15.0,28.29,West,271,7.0,20.0,72,0.00,,,0.84,WUHU216DAVISWMX,2013-01-05 09:40:00,
2013-01-05 04:45:00,22.5,14.9,28.29,West,277,9.0,20.0,72,0.00,,,0.84,WUHU216DAVISWMX,2013-01-05 09:45:00,
2013-01-05 04:50:00,22.6,15.0,28.29,West,277,7.0,14.0,72,0.00,,,0.84,WUHU216DAVISWMX,2013-01-05 09:50:00,
2013-01-05 04:55:00,22.6,15.0,28.30,WNW,284,7.0,14.0,72,0.00,,,0.84,WUHU216DAVISWMX,2013-01-05 09:55:00,
2013-01-05 05:00:00,22.6,15.0,28.30,West,272,15.0,15.0,72,0.00,,,0.84,WUHU216DAVISWMX,2013-01-05 10:00:00,
2013-01-05 05:05:00,22.6,15.0,28.30,West,278,11.0,17.0,72,0.00,,,0.84,WUHU216DAVISWMX,2013-01-05 10:05:00,
2013-01-05 05:10:00,22.6,15.0,28.30,WNW,284,13.0,17.0,72,0.00,,,0.84,WUHU216DAVISWMX,2013-01-05 10:10:00,
2013-01-05 05:15:00,22.4,14.8,28.30,West,276,6.0,14.0,72,0.00,,,0.84,WUHU216DAVISWMX,2013-01-05 10:15:00,
2013-01-05 05:20:00,22.5,15.2,28.30,West,279,12.0,13.0,73,0.00,,,0.84,WUHU216DAVISWMX,2013-01-05 10:20:00,
2013-01-05 05:25:00,22.4,15.1,28.30,WNW,284,7.0,14.0,73,0.00,,,0.84,WUHU216DAVISWMX,2013-01-05 10:25:00,
2013-01-05 05:30:00,22.5,15.2,28.30,West,275,10.0,14.0,73,0.00,,,0.84,WUHU216DAVISWMX,2013-01-05 10:30:00,
2013-01-05 05:35:00,22.4,15.1,28.31,WNW,282,4.0,14.0,73,0.00,,,0.84,WUHU216DAVISWMX,2013-01-05 10:35:00,
2013-01-05 05:40:00,22.5,15.2,28.31,WNW,282,7.0,15.0,73,0.00,,,0.84,WUHU216DAVISWMX,2013-01-05 10:40:00,
2013-01-05 05:45:00,22.4,15.1,28.31,West,275,7.0,15.0,73,0.00,,,0.84,WUHU216DAVISWMX,2013-01-05 10:45:00,
2013-01-05 05:50:00,22.4,15.1,28.32,West,267,8.0,14.0,73,0.00,,,0.84,WUHU216DAVISWMX,2013-01-05 10:50:00,
2013-01-05 05:55:00,22.4,15.1,28.32,WNW,285,10.0,14.0,73,0.00,,,0.84,WUHU216DAVISWMX,2013-01-05 10:55:00,
2013-01-05 06:00:00,22.5,15.2,28.32,WNW,282,9.0,21.0,73,0.00,,,0.84,WUHU216DAVISWMX,2013-01-05 11:00:00,
2013-01-05 06:05:00,22.4,15.4,28.32,WNW,288,12.0,21.0,74,0.00,,,0.84,WUHU216DAVISWMX,2013-01-05 11:05:00,
2013-01-05 06:10:00,22.4,15.4,28.32,West,281,0.0,14.0,74,0.00,,,0.84,WUHU216DAVISWMX,2013-01-05 11:10:00,
2013-01-05 06:15:00,22.4,15.4,28.32,West,281,0.0,14.0,74,0.00,,,0.84,WUHU216DAVISWMX,2013-01-05 11:15:00,
2013-01-05 06:20:00,22.4,15.4,28.32,West,281,0.0,0.0,74,0.00,,,0.84,WUHU216DAVISWMX,2013-01-05 11:20:00,
2013-01-05 06:25:00,22.4,15.4,28.32,West,281,0.0,0.0,74,0.00,,,0.84,WUHU216DAVISWMX,2013-01-05 11:25:00,
2013-01-05 06:30:00,22.4,15.4,28.32,West,281,0.0,0.0,74,0.00,,,0.84,WUHU216DAVISWMX,2013-01-05 11:30:00,
2013-01-05 06:33:00,22.4,15.1,28.33,West,281,0.0,0.0,73,0.00,,,0.84,WUHU216DAVISWMX,2013-01-05 11:33:00,
2013-01-05 06:35:00,22.4,15.1,28.32,West,281,0.0,0.0,73,0.00,,,0.84,WUHU216DAVISWMX,2013-01-05 11:35:00,
2013-01-05 06:40:00,22.4,15.1,28.33,West,281,0.0,0.0,73,0.00,,,0.84,WUHU216DAVISWMX,2013-01-05 11:40:00,
2013-01-05 07:14:00,22.1,15.7,28.33,WNW,294,9.0,9.0,76,0.00,,,0.84,WUHU216DAVISWMX,2013-01-05 12:14:00,
2013-01-05 07:19:00,22.1,15.7,28.33,West,272,9.0,15.0,76,0.00,,,0.84,WUHU216DAVISWMX,2013-01-05 12:19:00,
2013-01-05 07:24:00,21.9,15.5,28.33,WNW,286,11.0,16.0,76,0.00,,,0.84,WUHU216DAVISWMX,2013-01-05 12:24:00,
2013-01-05 07:29:00,21.9,15.5,28.34,West,280,7.0,16.0,76,0.00,,,0.84,WUHU216DAVISWMX,2013-01-05 12:29:00,
2013-01-05 07:34:00,21.9,15.2,28.34,West,281,4.0,16.0,75,0.00,,,0.84,WUHU216DAVISWMX,2013-01-05 12:34:00,
2013-01-05 07:39:00,21.9,15.5,28.35,West,275,11.0,16.0,76,0.00,,,0.84,WUHU216DAVISWMX,2013-01-05 12:39:00,
2013-01-05 07:44:00,22.1,15.7,28.36,West,281,10.0,14.0,76,0.00,,,0.84,WUHU216DAVISWMX,2013-01-05 12:44:00,
2013-01-05 07:49:00,22.0,15.6,28.36,West,268,7.0,14.0,76,0.00,,,0.84,WUHU216DAVISWMX,2013-01-05 12:49:00,
2013-01-05 07:54:00,22.1,16.0,28.36,WNW,282,11.0,12.0,77,0.00,,,0.84,WUHU216DAVISWMX,2013-01-05 12:54:00,
2013-01-05 07:59:00,22.0,15.6,28.36,WSW,246,4.0,12.0,76,0.00,,,0.84,WUHU216DAVISWMX,2013-01-05 12:59:00,
2013-01-05 08:04:00,22.0,15.9,28.36,West,281,6.0,9.0,77,0.00,,,0.84,WUHU216DAVISWMX,2013-01-05 13:04:00,
2013-01-05 08:09:00,22.0,15.9,28.36,WNW,293,5.0,10.0,77,0.00,,,0.84,WUHU216DAVISWMX,2013-01-05 13:09:00,
2013-01-05 08:14:00,22.0,15.9,28.36,WNW,290,6.0,10.0,77,0.00,,,0.84,WUHU216DAVISWMX,2013-01-05 13:14:00,
2013-01-05 08:19:00,22.1,16.0,28.37,West,281,0.0,8.0,77,0.00,,,0.84,WUHU216DAVISWMX,2013-01-05 13:19:00,
2013-01-05 08:24:00,22.1,16.0,28.37,West,273,5.0,13.0,77,0.00,,,0.84,WUHU216DAVISWMX,2013-01-05 13:24:00,
2013-01-05 08:29:00,22.2,16.1,28.37,West,273,9.0,13.0,77,0.00,,,0.84,WUHU216DAVISWMX,2013-01-05 13:29:00,
2013-01-05 08:34:00,22.2,16.1,28.37,West,271,4.0,13.0,77,0.00,,,0.84,WUHU216DAVISWMX,2013-01-05 13:34:00,
2013-01-05 08:39:00,22.2,16.1,28.38,West,264,3.0,8.0,77,0.00,,,0.84,WUHU216DAVISWMX,2013-01-05 13:39:00,
2013-01-05 08:44:00,22.2,16.1,28.38,West,278,2.0,7.0,77,0.00,,,0.84,WUHU216DAVISWMX,2013-01-05 13:44:00,
2013-01-05 08:49:00,22.3,16.2,28.38,West,262,3.0,12.0,77,0.00,,,0.84,WUHU216DAVISWMX,2013-01-05 13:49:00,
2013-01-05 08:54:00,22.3,16.2,28.38,WSW,249,4.0,12.0,77,0.00,,,0.84,WUHU216DAVISWMX,2013-01-05 13:54:00,
2013-01-05 08:59:00,22.3,16.2,28.38,WSW,252,1.0,11.0,77,0.00,,,0.84,WUHU216DAVISWMX,2013-01-05 13:59:00,
2013-01-05 09:04:00,22.5,16.4,28.37,West,279,10.0,10.0,77,0.00,,,0.84,WUHU216DAVISWMX,2013-01-05 14:04:00,
2013-01-05 09:09:00,22.5,16.4,28.37,West,279,6.0,11.0,77,0.00,,,0.84,WUHU216DAVISWMX,2013-01-05 14:09:00,
2013-01-05 09:14:00,22.6,16.5,28.37,West,262,4.0,11.0,77,0.00,,,0.84,WUHU216DAVISWMX,2013-01-05 14:14:00,
2013-01-05 09:19:00,22.6,16.2,28.37,West,263,8.0,10.0,76,0.00,,,0.84,WUHU216DAVISWMX,2013-01-05 14:19:00,
2013-01-05 09:24:00,22.7,16.6,28.37,WSW,245,4.0,10.0,77,0.00,,,0.84,WUHU216DAVISWMX,2013-01-05 14:24:00,
2013-01-05 09:29:00,22.7,16.3,28.36,WSW,256,3.0,11.0,76,0.00,,,0.84,WUHU216DAVISWMX,2013-01-05 14:29:00,
2013-01-05 09:34:00,22.7,16.3,28.36,WNW,295,3.0,11.0,76,0.00,,,0.84,WUHU216DAVISWMX,2013-01-05 14:34:00,
2013-01-05 09:39:00,22.9,16.5,28.36,West,276,6.0,11.0,76,0.00,,,0.84,WUHU216DAVISWMX,2013-01-05 14:39:00,
2013-01-05 09:44:00,22.9,16.5,28.35,WNW,287,4.0,11.0,76,0.00,,,0.84,WUHU216DAVISWMX,2013-01-05 14:44:00,
2013-01-05 09:49:00,22.9,16.5,28.36,WNW,284,9.0,11.0,76,0.00,,,0.84,WUHU216DAVISWMX,2013-01-05 14:49:00,
2013-01-05 09:54:00,23.0,16.6,28.36,WNW,282,7.0,11.0,76,0.00,,,0.84,WUHU216DAVISWMX,2013-01-05 14:54:00,
2013-01-05 09:59:00,23.2,16.5,28.37,WNW,283,9.0,13.0,75,0.00,,,0.84,WUHU216DAVISWMX,2013-01-05 14:59:00,
2013-01-05 10:04:00,23.3,16.6,28.37,WNW,287,3.0,13.0,75,0.00,,,0.84,WUHU216DAVISWMX,2013-01-05 15:04:00,
2013-01-05 10:09:00,23.5,17.1,28.37,WNW,288,2.0,12.0,76,0.00,,,0.84,WUHU216DAVISWMX,2013-01-05 15:09:00,
2013-01-05 10:14:00,23.7,17.3,28.38,WNW,283,5.0,9.0,76,0.00,,,0.84,WUHU216DAVISWMX,2013-01-05 15:14:00,
2013-01-05 10:19:00,23.7,16.7,28.38,West,280,2.0,9.0,74,0.00,,,0.84,WUHU216DAVISWMX,2013-01-05 15:19:00,
2013-01-05 10:24:00,23.9,17.2,28.38,West,264,4.0,9.0,75,0.00,,,0.84,WUHU216DAVISWMX,2013-01-05 15:24:00,
2013-01-05 10:29:00,24.0,17.3,28.38,WNW,290,0.0,8.0,75,0.00,,,0.84,WUHU216DAVISWMX,2013-01-05 15:29:00,
2013-01-05 10:34:00,24.0,17.0,28.37,WNW,286,0.0,12.0,74,0.00,,,0.84,WUHU216DAVISWMX,2013-01-05 15:34:00,
2013-01-05 10:39:00,24.0,17.0,28.37,WNW,286,0.0,12.0,74,0.00,,,0.84,WUHU216DAVISWMX,2013-01-05 15:39:00,
2013-01-05 10:44:00,24.0,17.0,28.37,WNW,286,0.0,0.0,74,0.00,,,0.84,WUHU216DAVISWMX,2013-01-05 15:44:00,
2013-01-05 10:49:00,24.0,17.3,28.37,WNW,286,0.0,0.0,75,0.00,,,0.84,WUHU216DAVISWMX,2013-01-05 15:49:00,
2013-01-05 10:54:00,24.0,17.0,28.36,WNW,286,0.0,0.0,74,0.00,,,0.84,WUHU216DAVISWMX,2013-01-05 15:54:00,
2013-01-05 10:59:00,24.0,17.3,28.36,WNW,286,0.0,0.0,75,0.00,,,0.84,WUHU216DAVISWMX,2013-01-05 15:59:00,
2013-01-05 11:00:00,24.0,17.0,28.36,WNW,296,0.0,0.0,74,0.00,,,0.84,WUHU216DAVISWMX,2013-01-05 16:00:00,
2013-01-05 11:04:00,24.0,17.0,28.36,WNW,296,0.0,0.0,74,0.00,,,0.84,WUHU216DAVISWMX,2013-01-05 16:04:00,
2013-01-05 11:09:00,24.0,17.0,28.36,WNW,296,0.0,0.0,74,0.00,,,0.84,WUHU216DAVISWMX,2013-01-05 16:09:00,
2013-01-05 11:36:00,25.6,17.6,28.35,WNW,298,9.0,9.0,71,0.00,,,0.84,WUHU216DAVISWMX,2013-01-05 16:36:00,
2013-01-05 11:41:00,26.1,17.7,28.34,West,266,0.0,9.0,70,0.00,,,0.84,WUHU216DAVISWMX,2013-01-05 16:41:00,
2013-01-05 11:46:00,26.2,17.8,28.34,West,266,0.0,7.0,70,0.00,,,0.84,WUHU216DAVISWMX,2013-01-05 16:46:00,
2013-01-05 11:51:00,26.2,17.8,28.34,West,266,0.0,0.0,70,0.00,,,0.84,WUHU216DAVISWMX,2013-01-05 16:51:00,
2013-01-05 11:56:00,26.1,17.7,28.34,West,266,0.0,0.0,70,0.00,,,0.84,WUHU216DAVISWMX,2013-01-05 16:56:00,
2013-01-05 12:01:00,26.1,17.7,28.33,West,266,0.0,0.0,70,0.00,,,0.84,WUHU216DAVISWMX,2013-01-05 17:01:00,
2013-01-05 12:05:00,26.1,17.7,28.33,West,266,0.0,0.0,70,0.00,,,0.84,WUHU216DAVISWMX,2013-01-05 17:05:00,
2013-01-05 12:06:00,26.2,17.8,28.33,West,266,0.0,0.0,70,0.00,,,0.84,WUHU216DAVISWMX,2013-01-05 17:06:00,
2013-01-05 12:11:00,26.1,17.7,28.33,West,266,0.0,0.0,70,0.00,,,0.84,WUHU216DAVISWMX,2013-01-05 17:11:00,
2013-01-05 12:44:00,28.5,17.6,28.31,WNW,300,7.0,7.0,63,0.00,,,0.84,WUHU216DAVISWMX,2013-01-05 17:44:00,
2013-01-05 12:49:00,28.7,18.1,28.30,West,280,7.0,10.0,64,0.00,,,0.84,WUHU216DAVISWMX,2013-01-05 17:49:00,
2013-01-05 12:54:00,28.8,18.2,28.30,WNW,291,4.0,12.0,64,0.00,,,0.84,WUHU216DAVISWMX,2013-01-05 17:54:00,
2013-01-05 12:59:00,29.1,17.8,28.30,West,281,7.0,12.0,62,0.00,,,0.84,WUHU216DAVISWMX,2013-01-05 17:59:00,
2013-01-05 13:04:00,29.5,18.5,28.30,West,259,0.0,10.0,63,0.00,,,0.84,WUHU216DAVISWMX,2013-01-05 18:04:00,
2013-01-05 13:09:00,29.5,18.5,28.29,West,259,0.0,6.0,63,0.00,,,0.84,WUHU216DAVISWMX,2013-01-05 18:09:00,
2013-01-05 13:14:00,29.5,18.5,28.30,West,259,0.0,0.0,63,0.00,,,0.84,WUHU216DAVISWMX,2013-01-05 18:14:00,
2013-01-05 13:19:00,29.5,18.5,28.29,West,259,0.0,0.0,63,0.00,,,0.84,WUHU216DAVISWMX,2013-01-05 18:19:00,
2013-01-05 13:24:00,29.5,18.5,28.28,West,259,0.0,0.0,63,0.00,,,0.84,WUHU216DAVISWMX,2013-01-05 18:24:00,
2013-01-05 13:29:00,29.5,18.5,28.28,West,259,0.0,0.0,63,0.00,,,0.84,WUHU216DAVISWMX,2013-01-05 18:29:00,
2013-01-05 13:32:00,29.5,18.5,28.27,West,259,0.0,0.0,63,0.00,,,0.84,WUHU216DAVISWMX,2013-01-05 18:32:00,
2013-01-05 13:34:00,29.5,18.5,28.27,West,259,0.0,0.0,63,0.00,,,0.84,WUHU216DAVISWMX,2013-01-05 18:34:00,
2013-01-05 13:39:00,29.5,18.5,28.27,West,259,0.0,0.0,63,0.00,,,0.84,WUHU216DAVISWMX,2013-01-05 18:39:00,
2013-01-05 14:04:00,31.5,18.4,28.27,WNW,294,0.0,0.0,58,0.00,,,0.84,WUHU216DAVISWMX,2013-01-05 19:04:00,
2013-01-05 14:09:00,31.7,19.0,28.27,WSW,246,3.0,5.0,59,0.00,,,0.84,WUHU216DAVISWMX,2013-01-05 19:09:00,
2013-01-05 14:14:00,32.0,18.9,28.27,West,278,5.0,9.0,58,0.00,,,0.84,WUHU216DAVISWMX,2013-01-05 19:14:00,
2013-01-05 14:19:00,31.7,18.6,28.26,West,261,0.0,9.0,58,0.00,,,0.84,WUHU216DAVISWMX,2013-01-05 19:19:00,
2013-01-05 14:24:00,31.9,18.4,28.26,WSW,237,5.0,6.0,57,0.01,,,0.85,WUHU216DAVISWMX,2013-01-05 19:24:00,
2013-01-05 14:29:00,31.7,18.6,28.27,WSW,248,3.0,7.0,58,0.01,,,0.85,WUHU216DAVISWMX,2013-01-05 19:29:00,
2013-01-05 14:34:00,31.7,18.6,28.27,SW,232,3.0,12.0,58,0.01,,,0.85,WUHU216DAVISWMX,2013-01-05 19:34:00,
2013-01-05 14:39:00,31.6,18.5,28.27,WSW,251,2.0,12.0,58,0.01,,,0.85,WUHU216DAVISWMX,2013-01-05 19:39:00,
2013-01-05 14:44:00,31.7,18.6,28.27,WSW,254,0.0,9.0,58,0.01,,,0.85,WUHU216DAVISWMX,2013-01-05 19:44:00,
2013-01-05 14:49:00,31.7,17.8,28.27,WNW,291,0.0,7.0,56,0.01,,,0.85,WUHU216DAVISWMX,2013-01-05 19:49:00,
2013-01-05 14:54:00,31.6,17.7,28.27,West,276,0.0,7.0,56,0.01,,,0.85,WUHU216DAVISWMX,2013-01-05 19:54:00,
2013-01-05 14:59:00,31.8,18.3,28.26,SW,225,0.0,7.0,57,0.01,,,0.85,WUHU216DAVISWMX,2013-01-05 19:59:00,
2013-01-05 15:04:00,32.1,19.0,28.27,WSW,238,4.0,6.0,58,0.01,,,0.85,WUHU216DAVISWMX,2013-01-05 20:04:00,
2013-01-05 15:09:00,31.8,17.9,28.27,WSW,247,0.0,7.0,56,0.01,,,0.85,WUHU216DAVISWMX,2013-01-05 20:09:00,
2013-01-05 15:14:00,31.6,18.1,28.28,WSW,251,4.0,7.0,57,0.01,,,0.85,WUHU216DAVISWMX,2013-01-05 20:14:00,
2013-01-05 15:19:00,31.4,18.4,28.28,WSW,258,4.0,12.0,58,0.01,,,0.85,WUHU216DAVISWMX,2013-01-05 20:19:00,
2013-01-05 15:24:00,31.7,18.6,28.27,WSW,253,0.0,12.0,58,0.00,,,0.85,WUHU216DAVISWMX,2013-01-05 20:24:00,
2013-01-05 15:28:00,32.0,18.1,28.27,West,263,0.0,10.0,56,0.00,,,0.85,WUHU216DAVISWMX,2013-01-05 20:28:00,
2013-01-05 15:34:00,32.0,18.1,28.28,WSW,256,4.0,10.0,56,0.00,,,0.85,WUHU216DAVISWMX,2013-01-05 20:34:00,
2013-01-05 15:38:00,31.8,18.3,28.27,WSW,258,2.0,9.0,57,0.00,,,0.85,WUHU216DAVISWMX,2013-01-05 20:38:00,
2013-01-05 15:43:00,31.7,18.2,28.27,WSW,246,5.0,5.0,57,0.00,,,0.85,WUHU216DAVISWMX,2013-01-05 20:43:00,
2013-01-05 15:48:00,31.6,17.3,28.27,West,270,4.0,6.0,55,0.00,,,0.85,WUHU216DAVISWMX,2013-01-05 20:48:00,
2013-01-05 15:53:00,31.6,17.7,28.26,WNW,283,2.0,7.0,56,0.00,,,0.85,WUHU216DAVISWMX,2013-01-05 20:53:00,
2013-01-05 15:58:00,31.7,17.8,28.27,WNW,283,0.0,7.0,56,0.00,,,0.85,WUHU216DAVISWMX,2013-01-05 20:58:00,
2013-01-05 16:04:00,31.8,18.3,28.27,West,266,5.0,7.0,57,0.00,,,0.85,WUHU216DAVISWMX,2013-01-05 21:04:00,
2013-01-05 16:09:00,31.9,18.0,28.27,WSW,238,0.0,7.0,56,0.00,,,0.85,WUHU216DAVISWMX,2013-01-05 21:09:00,
2013-01-05 16:14:00,31.8,17.9,28.26,WSW,238,0.0,5.0,56,0.00,,,0.85,WUHU216DAVISWMX,2013-01-05 21:14:00,
2013-01-05 16:18:00,31.8,17.9,28.25,WSW,238,0.0,0.0,56,0.00,,,0.85,WUHU216DAVISWMX,2013-01-05 21:18:00,
2013-01-05 16:23:00,31.8,17.9,28.25,WSW,238,0.0,0.0,56,0.00,,,0.85,WUHU216DAVISWMX,2013-01-05 21:23:00,
2013-01-05 16:28:00,31.8,17.9,28.25,WSW,238,0.0,0.0,56,0.00,,,0.85,WUHU216DAVISWMX,2013-01-05 21:28:00,
2013-01-05 16:34:00,31.8,17.9,28.25,WSW,238,0.0,0.0,56,0.00,,,0.85,WUHU216DAVISWMX,2013-01-05 21:34:00,
2013-01-05 16:36:00,31.8,17.9,28.24,WSW,238,0.0,0.0,56,0.00,,,0.85,WUHU216DAVISWMX,2013-01-05 21:36:00,
2013-01-05 16:39:00,31.8,17.9,28.24,WSW,238,0.0,0.0,56,0.00,,,0.85,WUHU216DAVISWMX,2013-01-05 21:39:00,
2013-01-05 16:44:00,31.8,17.9,28.24,WSW,238,0.0,0.0,56,0.00,,,0.85,WUHU216DAVISWMX,2013-01-05 21:44:00,
2013-01-05 17:14:00,29.8,17.2,28.25,WSW,255,0.0,0.0,59,0.00,,,0.85,WUHU216DAVISWMX,2013-01-05 22:14:00,
2013-01-05 17:19:00,29.1,17.0,28.25,WSW,240,0.0,0.0,60,0.00,,,0.85,WUHU216DAVISWMX,2013-01-05 22:19:00,
2013-01-05 17:24:00,28.5,16.8,28.26,WSW,240,0.0,0.0,61,0.00,,,0.85,WUHU216DAVISWMX,2013-01-05 22:24:00,
2013-01-05 17:29:00,28.6,16.9,28.25,WSW,240,0.0,0.0,61,0.00,,,0.85,WUHU216DAVISWMX,2013-01-05 22:29:00,
2013-01-05 17:34:00,28.6,16.9,28.25,WSW,240,0.0,0.0,61,0.00,,,0.85,WUHU216DAVISWMX,2013-01-05 22:34:00,
2013-01-05 17:39:00,28.6,16.9,28.25,WSW,240,0.0,0.0,61,0.00,,,0.85,WUHU216DAVISWMX,2013-01-05 22:39:00,
2013-01-05 17:44:00,28.6,16.9,28.25,WSW,240,0.0,0.0,61,0.00,,,0.85,WUHU216DAVISWMX,2013-01-05 22:44:00,
2013-01-05 17:48:00,28.6,16.9,28.25,WSW,240,0.0,0.0,61,0.00,,,0.85,WUHU216DAVISWMX,2013-01-05 22:48:00,
2013-01-05 17:49:00,28.6,16.9,28.25,WSW,240,0.0,0.0,61,0.00,,,0.85,WUHU216DAVISWMX,2013-01-05 22:49:00,
2013-01-05 17:54:00,28.6,16.9,28.25,WSW,240,0.0,0.0,61,0.00,,,0.85,WUHU216DAVISWMX,2013-01-05 22:54:00,
2013-01-05 18:01:00,28.6,16.9,28.25,WSW,240,0.0,0.0,61,0.00,,,0.85,WUHU216DAVISWMX,2013-01-05 23:01:00,
2013-01-05 18:25:00,26.4,16.3,28.24,WSW,243,0.0,0.0,65,0.00,,,0.85,WUHU216DAVISWMX,2013-01-05 23:25:00,
2013-01-05 18:30:00,26.2,16.8,28.23,WSW,240,0.0,0.0,67,0.00,,,0.85,WUHU216DAVISWMX,2013-01-05 23:30:00,
2013-01-05 18:35:00,26.2,16.8,28.23,WSW,240,0.0,0.0,67,0.00,,,0.85,WUHU216DAVISWMX,2013-01-05 23:35:00,
2013-01-05 18:40:00,26.0,16.6,28.23,WSW,240,0.0,0.0,67,0.00,,,0.85,WUHU216DAVISWMX,2013-01-05 23:40:00,
2013-01-05 18:45:00,25.9,16.5,28.24,WSW,240,0.0,0.0,67,0.00,,,0.85,WUHU216DAVISWMX,2013-01-05 23:45:00,
2013-01-05 18:50:00,25.9,16.8,28.24,WSW,240,0.0,0.0,68,0.00,,,0.85,WUHU216DAVISWMX,2013-01-05 23:50:00,
2013-01-05 18:55:00,25.7,16.7,28.23,WSW,240,0.0,0.0,68,0.00,,,0.85,WUHU216DAVISWMX,2013-01-05 23:55:00,
2013-01-05 19:00:00,25.7,16.7,28.25,WSW,240,0.0,0.0,68,0.00,,,0.85,WUHU216DAVISWMX,2013-01-06 00:00:00,
2013-01-05 19:05:00,25.6,16.9,28.25,WSW,240,0.0,0.0,69,0.00,,,0.85,WUHU216DAVISWMX,2013-01-06 00:05:00,
2013-01-05 19:10:00,25.5,16.8,28.24,WSW,240,0.0,0.0,69,0.00,,,0.85,WUHU216DAVISWMX,2013-01-06 00:10:00,
2013-01-05 19:15:00,25.6,16.9,28.25,WSW,240,0.0,0.0,69,0.00,,,0.85,WUHU216DAVISWMX,2013-01-06 00:15:00,
2013-01-05 19:20:00,25.6,16.9,28.25,WSW,240,0.0,0.0,69,0.00,,,0.85,WUHU216DAVISWMX,2013-01-06 00:20:00,
2013-01-05 19:25:00,25.6,16.9,28.24,WSW,240,0.0,0.0,69,0.00,,,0.85,WUHU216DAVISWMX,2013-01-06 00:25:00,
2013-01-05 19:29:00,25.6,16.9,28.23,West,263,0.0,0.0,69,0.00,,,0.85,WUHU216DAVISWMX,2013-01-06 00:29:00,
2013-01-05 19:30:00,25.6,16.9,28.23,WSW,240,0.0,0.0,69,0.00,,,0.85,WUHU216DAVISWMX,2013-01-06 00:30:00,
2013-01-05 19:35:00,25.6,16.9,28.23,West,263,0.0,0.0,69,0.00,,,0.85,WUHU216DAVISWMX,2013-01-06 00:35:00,
2013-01-05 19:41:00,25.6,16.9,28.23,West,263,0.0,0.0,69,0.00,,,0.85,WUHU216DAVISWMX,2013-01-06 00:41:00,
2013-01-05 19:57:00,24.8,16.8,28.23,WSW,243,0.0,0.0,71,0.00,,,0.85,WUHU216DAVISWMX,2013-01-06 00:57:00,
2013-01-05 20:02:00,24.9,16.9,28.23,WSW,240,0.0,0.0,71,0.00,,,0.85,WUHU216DAVISWMX,2013-01-06 01:02:00,
2013-01-05 20:07:00,24.8,17.1,28.22,WSW,240,0.0,0.0,72,0.00,,,0.85,WUHU216DAVISWMX,2013-01-06 01:07:00,
2013-01-05 20:12:00,24.8,17.1,28.22,WSW,240,0.0,0.0,72,0.00,,,0.85,WUHU216DAVISWMX,2013-01-06 01:12:00,
2013-01-05 20:17:00,25.0,17.3,28.22,WSW,240,0.0,0.0,72,0.00,,,0.85,WUHU216DAVISWMX,2013-01-06 01:17:00,
2013-01-05 20:22:00,25.3,17.6,28.23,WSW,240,0.0,0.0,72,0.00,,,0.85,WUHU216DAVISWMX,2013-01-06 01:22:00,
2013-01-05 20:27:00,25.4,17.7,28.23,WSW,240,0.0,0.0,72,0.00,,,0.85,WUHU216DAVISWMX,2013-01-06 01:27:00,
2013-01-05 20:32:00,25.3,17.6,28.23,WSW,240,0.0,0.0,72,0.00,,,0.85,WUHU216DAVISWMX,2013-01-06 01:32:00,
2013-01-05 20:37:00,25.1,17.4,28.23,WSW,240,0.0,0.0,72,0.00,,,0.85,WUHU216DAVISWMX,2013-01-06 01:37:00,
2013-01-05 20:42:00,25.0,17.3,28.23,WSW,240,0.0,0.0,72,0.00,,,0.85,WUHU216DAVISWMX,2013-01-06 01:42:00,
2013-01-05 20:47:00,24.8,17.4,28.22,WSW,240,0.0,0.0,73,0.00,,,0.85,WUHU216DAVISWMX,2013-01-06 01:47:00,
2013-01-05 20:52:00,25.0,17.6,28.23,WSW,240,0.0,0.0,73,0.00,,,0.85,WUHU216DAVISWMX,2013-01-06 01:52:00,
2013-01-05 20:57:00,25.1,17.7,28.23,WSW,240,0.0,0.0,73,0.00,,,0.85,WUHU216DAVISWMX,2013-01-06 01:57:00,
2013-01-05 21:02:00,25.1,17.7,28.23,WSW,240,0.0,0.0,73,0.00,,,0.85,WUHU216DAVISWMX,2013-01-06 02:02:00,
2013-01-05 21:07:00,25.0,17.6,28.23,WSW,240,0.0,0.0,73,0.00,,,0.85,WUHU216DAVISWMX,2013-01-06 02:07:00,
2013-01-05 21:12:00,25.0,17.6,28.23,WSW,240,0.0,0.0,73,0.00,,,0.85,WUHU216DAVISWMX,2013-01-06 02:12:00,
2013-01-05 21:17:00,25.0,17.6,28.23,SSW,195,0.0,6.0,73,0.00,,,0.85,WUHU216DAVISWMX,2013-01-06 02:17:00,
2013-01-05 21:22:00,25.0,17.6,28.23,SSW,195,0.0,6.0,73,0.00,,,0.85,WUHU216DAVISWMX,2013-01-06 02:22:00,
2013-01-05 21:27:00,25.0,17.6,28.23,SSW,195,0.0,0.0,73,0.00,,,0.85,WUHU216DAVISWMX,2013-01-06 02:27:00,
2013-01-05 21:32:00,25.0,17.6,28.22,SSW,195,0.0,0.0,73,0.00,,,0.85,WUHU216DAVISWMX,2013-01-06 02:32:00,
2013-01-05 21:37:00,24.9,17.5,28.22,SSW,195,0.0,0.0,73,0.00,,,0.85,WUHU216DAVISWMX,2013-01-06 02:37:00,
2013-01-05 21:39:00,25.0,17.6,28.22,SSW,195,0.0,0.0,73,0.00,,,0.85,WUHU216DAVISWMX,2013-01-06 02:39:00,
2013-01-05 21:42:00,25.0,17.6,28.22,SSW,195,0.0,0.0,73,0.00,,,0.85,WUHU216DAVISWMX,2013-01-06 02:42:00,
2013-01-05 21:47:00,25.0,17.6,28.22,SSW,195,0.0,0.0,73,0.00,,,0.85,WUHU216DAVISWMX,2013-01-06 02:47:00,
2013-01-05 22:03:00,28.7,18.5,28.20,WSW,243,0.0,0.0,65,0.00,,,0.85,WUHU216DAVISWMX,2013-01-06 03:03:00,
2013-01-05 22:08:00,28.8,18.2,28.20,WSW,243,0.0,5.0,64,0.00,,,0.85,WUHU216DAVISWMX,2013-01-06 03:08:00,
2013-01-05 22:13:00,28.8,18.2,28.20,WSW,250,0.0,5.0,64,0.00,,,0.85,WUHU216DAVISWMX,2013-01-06 03:13:00,
2013-01-05 22:18:00,28.9,17.9,28.19,WSW,239,3.0,6.0,63,0.00,,,0.85,WUHU216DAVISWMX,2013-01-06 03:18:00,
2013-01-05 22:23:00,28.9,18.3,28.19,WSW,239,3.0,6.0,64,0.00,,,0.85,WUHU216DAVISWMX,2013-01-06 03:23:00,
2013-01-05 22:28:00,29.1,18.1,28.19,WSW,239,0.0,6.0,63,0.00,,,0.85,WUHU216DAVISWMX,2013-01-06 03:28:00,
2013-01-05 22:33:00,29.2,17.8,28.18,WSW,242,0.0,6.0,62,0.00,,,0.85,WUHU216DAVISWMX,2013-01-06 03:33:00,
2013-01-05 22:38:00,29.3,17.6,28.18,SW,228,2.0,7.0,61,0.00,,,0.85,WUHU216DAVISWMX,2013-01-06 03:38:00,
2013-01-05 22:43:00,29.5,17.7,28.19,WSW,253,6.0,8.0,61,0.00,,,0.85,WUHU216DAVISWMX,2013-01-06 03:43:00,
2013-01-05 22:48:00,29.6,17.8,28.18,WSW,252,3.0,9.0,61,0.00,,,0.85,WUHU216DAVISWMX,2013-01-06 03:48:00,
2013-01-05 22:53:00,29.5,17.7,28.18,West,262,2.0,9.0,61,0.00,,,0.85,WUHU216DAVISWMX,2013-01-06 03:53:00,
2013-01-05 22:58:00,29.5,17.4,28.18,West,262,0.0,8.0,60,0.00,,,0.85,WUHU216DAVISWMX,2013-01-06 03:58:00,
2013-01-05 23:03:00,29.5,17.4,28.18,West,262,0.0,4.0,60,0.00,,,0.85,WUHU216DAVISWMX,2013-01-06 04:03:00,
2013-01-05 23:08:00,29.5,17.4,28.19,West,262,0.0,0.0,60,0.00,,,0.85,WUHU216DAVISWMX,2013-01-06 04:08:00,
2013-01-05 23:13:00,29.5,17.7,28.19,West,262,0.0,0.0,61,0.00,,,0.85,WUHU216DAVISWMX,2013-01-06 04:13:00,
2013-01-05 23:18:00,29.5,17.7,28.19,West,262,0.0,0.0,61,0.00,,,0.85,WUHU216DAVISWMX,2013-01-06 04:18:00,
2013-01-05 23:20:00,29.5,17.7,28.18,West,262,0.0,0.0,61,0.00,,,0.85,WUHU216DAVISWMX,2013-01-06 04:20:00,
2013-01-05 23:23:00,29.5,17.7,28.18,West,262,0.0,0.0,61,0.00,,,0.85,WUHU216DAVISWMX,2013-01-06 04:23:00,
2013-01-05 23:28:00,29.5,17.7,28.18,West,262,0.0,0.0,61,0.00,,,0.85,WUHU216DAVISWMX,2013-01-06 04:28:00,
2013-01-05 23:55:00,27.9,18.1,28.19,WNW,300,0.0,0.0,66,0.00,,,0.85,WUHU216DAVISWMX,2013-01-06 04:55:00,